Showing default

QPS-SAR-7 TSUKUYOMI-II, 59447

Orbit data source: Space-Track

QPS-SAR-7 TSUKUYOMI-II, 59447 is a payload satellite owned by QPS Labs (JP) in LEO that was launched on Sun, 07 Apr 2024 UTC via an FALCON 9 launch vehicle from the Air Force Eastern Test Range (AFETR). Payload-class satellites include a variety of spacecraft equipped with specific instruments for various scientific and technological missions. These include communications satellites like Starlink; space stations such as the ISS; scientific satellites like the Hubble; Earth observation satellites from companies like Planet Labs, Umbra, and HawkEye 360; GPS; miniature CubeSats for education and research; and military/defense satellites.

Loading next visibility...
Identifier
59447, 2024-066F
Orbit
LEO
Last TLE update
4 hours ago
Origin
Manufacturer
QPS Labs
Mission
Operational spacecraft
Bus & Motor
QSAT, Unknown motor
Mass
~120 kg wet, ~100 kg dry
Launch date (UTC)
2024-04-07 (1 year ago)
Launch vehicle
FALCON 9
Launch site
Air Force Eastern Test Range (AFETR)
Object type
Payload
Rocket body
Debris
Shape & HBR
Unknown
Radar Cross Section
Large (>1 m²)

Expand to show TLE details & history

TLE from 4 hours ago
0 QPS-SAR-7 TSUKUYOMI-II
1 59447U 24066F   25129.24279156  .00006850  00000-0  52942-3 0  9996
2 59447  45.6057 193.9410 0002641 334.1147  25.9603 15.02213514 59352
Epoch: 2025-05-09T05:49Z
Definitive object data (Epoch: 2025-05-09T05:49:37.19Z)
Latitude
-0.00003°
Longitude
-120.76573°
Altitude
558.491 km
Speed
7.585 km/s
True Right ascension
12h 55m 45s
True Declination
0° 00' 00"
Sunlit
Object was in full shadow at TLE epoch
Visualization TLE readout
Latitude
5.94161°
Longitude
52.56221°
Altitude
561.311 km
Speed
7.582 km/s
Apparent Right ascension
02h 39m 10s
Apparent Declination
-20° 25' 06"
Sunlit
Object is in daylight
Visualization observer readout
Local Sidereal Time
17:56:10
Azimuth
80.018° E
Elevation
-43.873°
Doppler factor
1
Orbital elements
Apogee altitude
563.396 km
Perigee altitude
559.73 km
Semi-major axis
6,939.7 km
Eccentricity
0.0002641
Inclination
45.6057°
RAAN
193.941°
Arg. of periapsis
334.1147°
True anomaly
25.97355°
Mean anomaly
25.9603°
Eccentric anomaly
25.96693°
Mean motion
3.75433 °/min
BSTAR
0.00052942
Orbital period
95.89 mins
Loading maneuver chart data...
Loading SW <> Apogee altitude chart data...
Loading historical data...
Loading historical data...
Loading historical data...
Loading historical data...
Loading historical data...
Loading historical data...
Loading historical data...

QPS-SAR-7 TSUKUYOMI-II Visibility forecast

Observer location: undefined°, undefined°

Span
Click to sort rows by Start time (UTC) header in descending order
Start Az.
Max El. time (UTC)
Max El. Az.
Max El.
End time (UTC)
End Az.
6 mins2025-05-09 10:58:47.091Z300.086° NW2025-05-09 11:01:47.091Z0.952° NNE31.422°2025-05-09 11:04:47.091Z66.262° ENE
7 mins2025-05-09 12:39:47.091Z299.2° NW2025-05-09 12:42:47.091Z30.973° NE43.809°2025-05-09 12:46:47.091Z108.021° ESE
5 mins2025-05-09 14:20:47.091Z262.151° W2025-05-09 14:22:47.091Z222.752° SW23.79°2025-05-09 14:25:47.091Z167.488° S
7 mins2025-05-10 07:34:47.091Z230.696° WSW2025-05-10 07:37:47.091Z149.279° SSE42.852°2025-05-10 07:41:47.091Z68.594° E
6 mins2025-05-10 09:15:47.091Z284.365° WNW2025-05-10 09:18:47.091Z4.343° NNE33.964°2025-05-10 09:21:47.091Z58.352° ENE
|